Location: Rounton
(54.4000°N, 1.3500°W)
Time: 20:37:30
(UTC+00:00)

A-11 Canister half - Pass Details

Date: 04 December 2021
Orbit: 1516 x 1684 km, 47.2° (Epoch: 19 January)

Event Time Altitude Azimuth Distance (km) Brightness Sun altitude
Rises 11:20:38 0° 273° (W) 4,854 11.5 12.9°
Reaches altitude 10° 11:23:50 10° 269° (W) 3,887 11.1 13.0°
Maximum altitude 11:33:19 51° 198° (SSW) 2,024 10.5 13.1°
Drops below altitude 10° 11:42:58 10° 127° (SE) 3,945 11.8 13.2°
Sets 11:46:14 0° 122° (ESE) 4,931 12.2 13.3°
